Flight Track Log - Related Links

Times and Time Zones

All times are in EDT time to prevent confusion due to time zone crossing. See the SWA407 flight status page for this flight to view local times or setup timezone preferences in your user account.

Time Position Orientation Groundspeed Altitude Reporting Facility
EDT Latitude Longitude Course Direction KTS MPH feet Rate Location/Type
Sun 02:59:29 PM 28.4167 -81.3167 230° Southwest 153 176 600  Level Orlando TRACON
Sun 03:00:59 PM 28.3667 -81.3833 230° Southwest 210 242 4,100 2,772 Climbing Orlando TRACON
Sun 03:01:54 PM 28.3667 -81.4333 270° West 236 272 7,300 2,087 Climbing Orlando TRACON
Sun 03:02:54 PM 28.4333 -81.4833 327° Northwest 306 352 8,100 1,765 Climbing Orlando TRACON
Sun 03:04:44 PM 28.5911 -81.5167 349° North 341 392 12,300 2,734 Climbing Jacksonville Center
Sun 03:05:43 PM 28.6958 -81.5317 353° North 359 413 15,800 3,500 Climbing Jacksonville Center
Sun 03:06:44 PM 28.7961 -81.5539 349° North 365 420 19,300 3,050 Climbing Jacksonville Center
Sun 03:07:43 PM 28.8986 -81.5786 348° North 371 427 21,900 2,723 Climbing Jacksonville Center
Sun 03:08:43 PM 29.0011 -81.6033 348° North 371 427 24,700 2,529 Climbing Jacksonville Center
Sun 03:09:44 PM 29.1100 -81.6281 349° North 376 433 27,000 2,100 Climbing Jacksonville Center
Sun 03:10:43 PM 29.2272 -81.6575 348° North 381 438 28,900 1,664 Climbing Jacksonville Center
Sun 03:11:43 PM 29.3422 -81.6872 347° North 397 457 30,300 1,388 Climbing Jacksonville Center
Sun 03:12:44 PM 29.4594 -81.7144 349° North 410 472 31,700 1,537 Climbing Jacksonville Center
Sun 03:13:44 PM 29.5808 -81.7414 349° North 420 483 33,400 1,664 Climbing Jacksonville Center
Sun 03:14:43 PM 29.6978 -81.7711 348° North 432 497 35,000 800 Climbing Jacksonville Center
Sun 03:15:44 PM 29.8150 -81.7986 348° North 432 497 35,000  Level Jacksonville Center
Sun 03:16:44 PM 29.9322 -81.8261 349° North 432 497 35,000  Level Jacksonville Center
Sun 03:17:43 PM 30.0367 -81.8464 350° North 432 497 35,000  Level Jacksonville Center
Sun 03:18:43 PM 30.1558 -81.8739 349° North 432 497 35,000  Level Jacksonville Center
Sun 03:19:43 PM 30.2833 -81.8800 358° North 439 505 35,000  Level Jacksonville Center
Sun 03:20:43 PM 30.4106 -81.8617 North 449 517 35,000  Level Jacksonville Center
Sun 03:21:43 PM 30.5358 -81.8433 North 455 524 35,000  Level Jacksonville Center
Sun 03:22:43 PM 30.6672 -81.8275 North 461 531 35,000  Level Jacksonville Center
Sun 03:23:43 PM 30.7944 -81.8117 North 461 531 35,000  Level Jacksonville Center
Sun 03:24:43 PM 30.9075 -81.8442 346° North 435 501 35,000  Level Jacksonville Center
Sun 03:25:43 PM 31.0081 -81.9036 333° Northwest 412 474 35,000  Level Jacksonville Center
Sun 03:26:43 PM 31.1131 -81.9681 332° Northwest 412 474 35,000  Level Jacksonville Center
Sun 03:27:43 PM 31.2197 -82.0278 334° Northwest 418 481 35,000  Level Jacksonville Center
Sun 03:28:43 PM 31.3225 -82.0925 332° Northwest 418 481 35,000  Level Jacksonville Center
Sun 03:29:43 PM 31.4294 -82.1547 334° Northwest 418 481 35,000  Level Jacksonville Center
Sun 03:30:43 PM 31.5342 -82.2175 333° Northwest 418 481 35,000  Level Jacksonville Center
Sun 03:32:51 PM 31.7600 -82.3486 334° Northwest 421 484 35,000  Level Atlanta Center
Sun 03:33:51 PM 31.8672 -82.4103 334° Northwest 427 491 35,000  Level Atlanta Center
Sun 03:34:51 PM 31.9725 -82.4744 333° Northwest 427 491 35,000  Level Atlanta Center
Sun 03:35:51 PM 32.0633 -82.5536 324° Northwest 417 480 35,000 -150 Level Atlanta Center
Sun 03:36:51 PM 32.1500 -82.6456 318° Northwest 412 474 34,700 -750 Descending Atlanta Center
Sun 03:37:51 PM 32.2428 -82.7497 316° Northwest 412 474 33,500 -1,050 Descending Atlanta Center
Sun 03:38:51 PM 32.3294 -82.8417 318° Northwest 417 480 32,600 -950 Descending Atlanta Center
Sun 03:39:51 PM 32.4181 -82.9367 318° Northwest 417 480 31,600 -950 Descending Atlanta Center
Sun 03:40:51 PM 32.5086 -83.0339 318° Northwest 422 486 30,700 -950 Descending Atlanta Center
Sun 03:41:51 PM 32.6011 -83.1339 318° Northwest 422 486 29,700 -950 Descending Atlanta Center
Sun 03:42:51 PM 32.6894 -83.2317 317° Northwest 430 495 28,800 -1,600 Descending Atlanta Center
Sun 03:43:51 PM 32.7842 -83.3347 318° Northwest 447 514 26,500 -2,450 Descending Atlanta Center
Sun 03:44:51 PM 32.8744 -83.4353 317° Northwest 447 514 23,900 -2,900 Descending Atlanta Center
Sun 03:45:51 PM 32.9644 -83.5311 318° Northwest 447 514 20,700 -2,600 Descending Atlanta Center
Sun 03:46:51 PM 33.0506 -83.6275 317° Northwest 441 507 18,700 -1,550 Descending Atlanta Center
Sun 03:47:51 PM 33.1300 -83.7139 318° Northwest 414 476 17,600 -1,442 Descending Atlanta Center
Sun 03:48:35 PM 33.1833 -83.7667 320° Northwest 360 414 16,200 -1,855 Descending Atlanta TRACON
Sun 03:49:41 PM 33.2500 -83.8667 309° West 345 397 14,200 -1,333 Descending Atlanta TRACON
Sun 03:50:41 PM 33.3167 -83.9500 314° West 317 365 13,400 -895 Descending Atlanta TRACON
Sun 03:51:35 PM 33.3500 -84.0167 301° West 300 345 12,500 -857 Descending Atlanta TRACON
Sun 03:51:51 PM 33.3706 -84.0439 312° West 312 359 12,400 -395 Descending Atlanta Center
Sun 03:52:51 PM 33.4164 -84.1158 307° West 286 329 12,000 -200 Descending Atlanta Center
Sun 03:53:51 PM 33.4603 -84.1833 308° West 265 305 12,000  Level Atlanta Center
Sun 03:54:41 PM 33.5000 -84.2333 314° West 252 290 12,000 -164 Level Atlanta TRACON
Sun 03:55:41 PM 33.5333 -84.3000 301° West 246 283 11,700 -762 Descending Atlanta TRACON
Sun 03:56:47 PM 33.5500 -84.3833 284° West 228 262 10,400 -1,150 Descending Atlanta TRACON
Sun 03:57:41 PM 33.5500 -84.4500 270° West 233 268 9,400 -1,148 Descending Atlanta TRACON
Sun 03:58:42 PM 33.5500 -84.5333 270° West 232 267 8,200 -1,200 Descending Atlanta TRACON
Sun 03:59:41 PM 33.5500 -84.6000 270° West 226 260 7,000 -1,462 Descending Atlanta TRACON
Sun 04:00:41 PM 33.5500 -84.6833 270° West 248 285 5,300 -1,450 Descending Atlanta TRACON
Sun 04:01:41 PM 33.5500 -84.7667 270° West 255 293 4,100 -803 Descending Atlanta TRACON
Sun 04:02:48 PM 33.6000 -84.7667 360° North 206 237 3,600 -520 Descending Atlanta TRACON
Sun 04:03:48 PM 33.6167 -84.7167 68° East 167 192 3,000 -316 Descending Atlanta TRACON
Sun 04:04:42 PM 33.6167 -84.6667 90° East 164 189 3,000  Level Atlanta TRACON
Sun 04:05:42 PM 33.6167 -84.6167 90° East 162 186 3,000 -50 Level Atlanta TRACON
Sun 04:06:42 PM 33.6167 -84.5667 90° East 163 188 2,900 -400 Descending Atlanta TRACON
Sun 04:07:42 PM 33.6167 -84.5167 90° East 125 144 2,200 -684 Descending Atlanta TRACON
Sun 04:08:36 PM 33.6167 -84.4833 90° East 128 147 1,600 -667 Descending Atlanta TRACON
Sun 04:10:00 PM 33.6367 -84.4279 64° Northeast  Level Estimated
Sun 04:17:00 PM 33.6367 -84.4279 64° Northeast  Level Estimated

Login

Don't have an account? Register now (free) for customized features, flight alerts, and more!